Regional Weather Roundup
Issued by NWS

Home | Current Version | Previous Version | Graphics & Text | Print | Product List | Glossary On
Versions: 1 2 3 4 5 6 7 8 9 10 11 12 13 14 15 16 17 18 19 20 21 22 23 24 25 26 27 28 29 30 31 32 33 34 35 36 37 38 39 40 41 42 43 44 45 46 47 48 49 50
000
ASUS43 KDMX 272101
RWRIA

WEATHER ROUNDUP FOR IOWA
NATIONAL WEATHER SERVICE DES MOINES IA
400 PM CDT THU APR 27 2017

NOTE: "FAIR" INDICATES FEW OR NO CLOUDS BELOW 12,000 FEET WITH NO
SIGNIFICANT WEATHER AND/OR OBSTRUCTIONS TO VISIBILITY.

* - THESE STATIONS ARE NOT NWS STATIONS...THUS NOT UNDER NWS
QUALITY CONTROL.  THEY ALSO DO NOT REPORT WEATHER SUCH
AS PRECIPITATION OR FOG.

IAZ001>003-012>014-020>022-031>034-043>046-272200-
   NORTHWEST IOWA

CITY           SKY/WX    TMP DP  RH WIND       PRES   REMARKS
CARROLL *      PTSUNNY   50  34  53 N15G22    29.68F
CHEROKEE *     CLOUDY    45  34  66 NW12G17   29.70S
DENISON *      SUNNY     52  36  54 NW9G17    29.70F
LE MARS *      PTSUNNY   48  34  57 NW10G20   29.70F
ORANGE CITY *  CLOUDY    45  36  70 N5G16     29.68F
SHELDON *      CLOUDY    41  32  70 MISG      29.68S
SIOUX CITY     SUNNY     51  35  54 NW10      29.70S
SPENCER        CLOUDY    40  30  67 NW15      29.69F WCI  32
STORM LAKE *     N/A     43  32  65 NW17      29.69S
$$

IAZ055>058-069>071-079>083-090>094-272200-
   SOUTHWEST IOWA

CITY           SKY/WX    TMP DP  RH WIND       PRES   REMARKS
ATLANTIC *     MOSUNNY   54  36  50 W13G21    29.70S
AUDUBON *      MOSUNNY   54  36  50 W7        29.69S
CLARINDA *     SUNNY     59  34  38 NW10G16   29.72F
COUNCIL BLFS * SUNNY     54  36  50 W9        29.69F
CRESTON *      MOSUNNY   55  34  44 W14G20    29.70S
HARLAN  *      MOSUNNY   54  36  50 W15       29.73S
LAMONI         SUNNY     58  40  51 W12       29.70S
RED OAK *      SUNNY     57  34  41 W10       29.70S
SHENANDOAH *   SUNNY     57  32  38 W8G16     29.71S
$$

IAZ047>049-059>061-072>074-084-272200-
   CENTRAL IOWA

CITY           SKY/WX    TMP DP  RH WIND       PRES   REMARKS
AMES           PTSUNNY   47  34  60 NW18G24   29.70F
ANKENY *       MOSUNNY   50  36  57 NW8G20    29.70F
BOONE *        PTSUNNY   45  34  65 NW10G23   29.69F
CHARITON *     PTSUNNY   55  39  54 W15       29.69S
DES MOINES     PTSUNNY   56  34  43 W14       29.68F
GRINNELL*      CLOUDY    47  34  61 W14       29.71F
KNOXVILLE *    PTSUNNY   54  37  54 W13G21    29.68F
MARSHALLTOWN   CLOUDY    43  32  65 W18G26    29.70R
NEWTON *       CLOUDY    50  34  53 NW13G20   29.69F
PELLA *        PTSUNNY   51  37  58 W6        29.71F
PERRY *          N/A     52  32  46 NW10G18   29.69F
$$

IAZ004>006-015-016-023>025-035-036-272200-
   NORTH CENTRAL IOWA

CITY           SKY/WX    TMP DP  RH WIND       PRES   REMARKS
ALGONA *       CLOUDY    39  28  65 NW15G22   29.68F WCI  31
CLARION *      CLOUDY    41  30  65 NW17      29.69S
ESTHERVILLE    CLOUDY    38  31  76 NW17      29.68R WCI  28
FORT DODGE *   CLOUDY    41  30  65 W9        29.71S
MASON CITY     CLOUDY    37  28  70 W18       29.68R WCI  27
FOREST CITY *  CLOUDY    37  27  65 W16       29.67S WCI  28
WEBSTER CITY * CLOUDY    41  30  65 W15       29.69S
IOWA FALLS *   CLOUDY    41  31  68 W17G26    29.71S
$$

IAZ007>011-017>019-026>030-037>042-050>054-066-272200-
   NORTHEAST IOWA

CITY           SKY/WX    TMP DP  RH WIND       PRES   REMARKS
CEDAR RAPIDS   CLOUDY    43  35  73 W16       29.69R
CHARLES CITY * CLOUDY    37  28  70 W17       29.67S WCI  28
CLINTON *      CLOUDY    43  36  76 W21       29.71R
DECORAH *      CLOUDY    37  30  75 W14G23    29.63R WCI  29
DUBUQUE        CLOUDY    40  31  70 W20       29.66S WCI  30
MONTICELLO *   CLOUDY    43  32  65 W21       29.68S
OELWEIN *      CLOUDY    39  30  70 W21G26    29.68R WCI  29
WATERLOO       CLOUDY    40  28  62 W17       29.69R WCI  31
$$

IAZ064-065-067-068-078-272200-
   EAST CENTRAL IOWA

CITY           SKY/WX    TMP DP  RH WIND       PRES   REMARKS
DAVENPORT      CLOUDY    43  35  73 W17       29.72R
IOWA CITY      CLOUDY    46  34  62 W16G22    29.73R
MUSCATINE *    CLOUDY    46  36  66 W14       29.73S
QUAD CITIES    CLOUDY    45  35  68 SW13G23   29.73R
$$

IAZ062-063-075>077-085>089-095>099-272200-
   SOUTHEAST IOWA

CITY           SKY/WX    TMP DP  RH WIND       PRES   REMARKS
BURLINGTON     PTSUNNY   50  40  68 W12       29.72F
FAIRFIELD *    CLOUDY    52  39  62 SW13      29.70F
FORT MADISON * CLOUDY    54  43  66 W10       29.73S
KEOKUK *       PTSUNNY   54  41  62 W13       29.72S
OSKALOOSA *    CLOUDY    52  37  56 W9        29.70F
OTTUMWA        CLOUDY    52  38  58 W10       29.70F
WASHINGTON *   CLOUDY    48  37  66 W14       29.72F
$$

ABBREVIATIONS USED IN REMARKS
   TC - TEMPERATURES IN CELSIUS
  WCI - WIND CHILL INDEX
   HX - HEAT INDEX
  VSB - VISIBILITY
$$




USA.gov is the U.S. government's official web portal to all federal, state and local government web resources and services.